Regional Weather Roundup
Issued by NWS

Home | Current Version | Previous Version | Text Only | Print | Product List | Glossary On
Versions: 1 2 3 4 5 6 7 8 9 10 11 12 13 14 15 16 17 18 19 20 21 22 23 24 25 26 27 28 29 30 31 32 33 34 35 36 37 38 39 40 41 42 43 44 45 46 47 48 49 50
000
ASUS42 KKEY 290910
RWRKEY

FLORIDA REGIONAL WEATHER ROUNDUP FOR THE FLORIDA KEYS
NATIONAL WEATHER SERVICE KEY WEST FLORIDA
500 AM EDT TUE JUL 29 2014

...SOUTH FLORIDA AND THE KEYS...

CITY           SKY/WX    TMP DP  RH WIND       PRES   REMARKS
FORT MYERS     PTCLDY    82  76  81 W8        29.96F
SW REGIONAL AP CLEAR     80  74  81 W6        29.97F
NAPLES         PTCLDY    85  78  80 SW7       29.97F HX  96
MIAMI          MOCLDY    81  73  76 SW5       29.99S
WEST KENDALL   PTCLDY    80  74  81 SW5       29.98F
HOMESTEAD      PTCLDY    77  74  90 S3        29.99S
MARATHON       PTCLDY    84  77  79 S5        29.99F HX  94
BOCA CHICA NAS CLEAR     83  75  77 SW6       29.99F HX  90
KEY WEST INTL  PTCLDY    86  74  67 SW5       30.00F HX  94

...INTERNATIONAL WEATHER...

CITY           SKY/WX    TMP DP  RH WIND       PRES   REMARKS
NASSAU BAHAMAS PTCLDY    84  77  79 CALM      29.99S HX  94
CANCUN MEXICO  PTCLDY    81  77  89 CALM      30.04S
COZUMEL MEXICO NOT AVBL

ADJACENT COASTAL WATERS...

STATION/POSITION TIME  SKY/WX   TEMP    WIND        PRES    WAVE
                                AIR SEA DIR/SP/G            HT/PER
                 (UTC)          (F)     (DEG/KT/KT) (MB)    (FT/S)
PULASKI SHOAL LI 0900            84     190/  4/  6 1016.0F
SAND KEY         0900            85     220/  5/  6 1015.8F
SOMBRERO KEY     0900            84     190/  7/  8 1016.4F
LONG KEY         0800            85 91  210/  9/ 10 1016.6F
MOLASSES REEF    0900            84 87  230/ 11/ 12 1015.3F
FOWEY ROCKS      0900            84 86  240/ 12/ 13 1015.7F
Buoy 42080       NOT AVBL

$$



USA.gov is the U.S. government's official web portal to all federal, state and local government web resources and services.